COSMO-SKYMED 3

Last updated on Thu Oct 30 2025 00:02:31 GMT+0000 (Coordinated Universal Time)

1 33412U 08054A 25302.52318315 .00006006 00000+0 42938-3 0 9990 2 33412 97.8531 152.1779 0015827 332.4451 27.5934 15.04753843922222
UTC large
Height (km)
Speed (km/s)
/
Latitude / Longitude
Inclination (degrees)
Orbital Period (minutes)
Azimuth
Elevation
Range (km)
Doppler Factor

Next 0 passes for location: London (51.5072 / 0.1276)

Sorry there are no passes over London.